• în Republica Moldova
  • Lista ţărilor
  • Pe 7 zile
  • Temperatura apei
  • Hartă satelitară
  • Meteo pe hartă
  • Widget-uri
  • user-avatar
    Intrare

    Meteo pe oră la Hobart

    Astăzi, 25 Februarie, Sâmbătă

    Timp Temperatura Precipitaţii Vânt Presiune Umiditate
    00:00 +6°C° 0 mm 4 m/s 755 mmHg 92%
    01:00 +5°C° 0 mm 4 m/s 755 mmHg 93%
    02:00 +5°C° 0 mm 3 m/s 755 mmHg 93%
    03:00 +4°C° 0 mm 3 m/s 755 mmHg 94%
    04:00 +4°C° 0 mm 4 m/s 755 mmHg 94%
    05:00 +5°C° 0 mm 3 m/s 755 mmHg 90%
    06:00 +7°C° 0 mm 3 m/s 756 mmHg 87%
    07:00 +7°C° 0 mm 3 m/s 756 mmHg 83%
    08:00 +10°C° 0 mm 3 m/s 756 mmHg 70%
    09:00 +14°C° 0 mm 2 m/s 756 mmHg 57%
    10:00 +18°C° 0 mm 2 m/s 756 mmHg 43%
    11:00 +19°C° 0 mm 2 m/s 756 mmHg 39%
    12:00 +20°C° 0 mm 2 m/s 756 mmHg 35%
    13:00 +21°C° 0 mm 2 m/s 756 mmHg 30%
    14:00 +21°C° 0 mm 3 m/s 756 mmHg 32%
    15:00 +20°C° 0 mm 3 m/s 756 mmHg 33%
    16:00 +20°C° 0 mm 3 m/s 755 mmHg 36%
    17:00 +17°C° 0 mm 3 m/s 756 mmHg 48%
    18:00 +14°C° 0 mm 3 m/s 756 mmHg 61%
    19:00 +13°C° 0 mm 2 m/s 756 mmHg 73%
    20:00 +10°C° 0 mm 2 m/s 756 mmHg 80%
    21:00 +10°C° 0 mm 1 m/s 756 mmHg 87%
    22:00 +9°C° 0 mm 1 m/s 756 mmHg 95%
    23:00 +9°C° 0 mm 1 m/s 756 mmHg 94%

    Mâine, 26 Februarie, Duminică

    Timp Temperatura Precipitaţii Vânt Presiune Umiditate
    00:00 +8°C° 0 mm 1 m/s 756 mmHg 94%
    01:00 +7°C° 0 mm 2 m/s 756 mmHg 94%
    02:00 +7°C° 0 mm 2 m/s 756 mmHg 95%
    03:00 +7°C° 0 mm 2 m/s 755 mmHg 95%
    04:00 +7°C° 0 mm 2 m/s 755 mmHg 95%
    05:00 +8°C° 0 mm 2 m/s 756 mmHg 90%
    06:00 +9°C° 0 mm 2 m/s 756 mmHg 86%
    07:00 +10°C° 0 mm 2 m/s 756 mmHg 81%
    08:00 +15°C° 0 mm 2 m/s 756 mmHg 70%
    09:00 +19°C° 0 mm 1 m/s 756 mmHg 59%
    10:00 +22°C° 0 mm 1 m/s 756 mmHg 47%
    11:00 +24°C° 0 mm 1 m/s 756 mmHg 43%
    12:00 +25°C° 0 mm 2 m/s 756 mmHg 38%
    13:00 +27°C° 0 mm 2 m/s 756 mmHg 34%
    14:00 +27°C° 0 mm 3 m/s 755 mmHg 35%
    15:00 +26°C° 0 mm 3 m/s 755 mmHg 36%
    16:00 +26°C° 0 mm 4 m/s 755 mmHg 37%
    17:00 +22°C° 0 mm 4 m/s 755 mmHg 49%
    18:00 +19°C° 0 mm 3 m/s 755 mmHg 62%
    19:00 +16°C° 0 mm 3 m/s 755 mmHg 75%
    20:00 +14°C° 0 mm 3 m/s 755 mmHg 79%
    21:00 +13°C° 0 mm 3 m/s 756 mmHg 83%
    22:00 +12°C° 0 mm 3 m/s 756 mmHg 88%
    23:00 +11°C° 0 mm 3 m/s 756 mmHg 88%

    Poimâine, 27 Februarie, Luni

    Timp Temperatura Precipitaţii Vânt Presiune Umiditate
    00:00 +11°C° 0 mm 3 m/s 756 mmHg 88%
    01:00 +11°C° 0 mm 3 m/s 755 mmHg 88%
    02:00 +11°C° 0 mm 3 m/s 755 mmHg 89%
    03:00 +10°C° 0 mm 3 m/s 755 mmHg 90%
    04:00 +10°C° 0 mm 3 m/s 755 mmHg 91%
    05:00 +11°C° 0 mm 3 m/s 756 mmHg 87%
    06:00 +12°C° 0 mm 3 m/s 756 mmHg 84%
    07:00 +13°C° 0 mm 3 m/s 756 mmHg 80%
    08:00 +17°C° 0 mm 3 m/s 756 mmHg 68%
    09:00 +20°C° 0 mm 3 m/s 756 mmHg 55%
    10:00 +24°C° 0 mm 3 m/s 757 mmHg 43%
    11:00 +26°C° 0 mm 3 m/s 756 mmHg 38%
    12:00 +28°C° 0 mm 4 m/s 756 mmHg 33%
    13:00 +29°C° 0 mm 4 m/s 755 mmHg 28%
    14:00 +29°C° 0 mm 4 m/s 755 mmHg 29%
    15:00 +29°C° 0 mm 5 m/s 755 mmHg 30%
    16:00 +29°C° 0 mm 5 m/s 754 mmHg 30%
    17:00 +26°C° 0 mm 5 m/s 754 mmHg 43%
    18:00 +22°C° 0 mm 5 m/s 754 mmHg 56%
    19:00 +19°C° 0 mm 5 m/s 754 mmHg 68%
    20:00 +18°C° 0 mm 4 m/s 755 mmHg 73%
    21:00 +15°C° 0 mm 4 m/s 755 mmHg 77%
    22:00 +14°C° 0 mm 4 m/s 755 mmHg 82%
    23:00 +14°C° 0 mm 4 m/s 755 mmHg 84%

    28 Februarie, Marţi

    Timp Temperatura Precipitaţii Vânt Presiune Umiditate
    00:00 +13°C° 0 mm 4 m/s 755 mmHg 86%
    01:00 +13°C° 0 mm 4 m/s 754 mmHg 88%
    02:00 +13°C° 0 mm 4 m/s 754 mmHg 89%
    03:00 +12°C° 0 mm 3 m/s 754 mmHg 91%
    04:00 +12°C° 0 mm 3 m/s 754 mmHg 92%
    05:00 +13°C° 0 mm 3 m/s 754 mmHg 88%
    06:00 +14°C° 0 mm 3 m/s 754 mmHg 84%
    07:00 +14°C° 0 mm 3 m/s 754 mmHg 80%
    08:00 +19°C° 0 mm 2 m/s 754 mmHg 67%
    09:00 +24°C° 0 mm 2 m/s 754 mmHg 53%
    10:00 +27°C° 0 mm 2 m/s 755 mmHg 39%
    11:00 +29°C° 0 mm 2 m/s 754 mmHg 35%
    12:00 +30°C° 0 mm 2 m/s 754 mmHg 30%
    13:00 +32°C° 0 mm 2 m/s 753 mmHg 25%
    14:00 +31°C° 0 mm 2 m/s 753 mmHg 27%
    15:00 +31°C° 0 mm 3 m/s 753 mmHg 28%
    16:00 +30°C° 0 mm 3 m/s 753 mmHg 30%
    17:00 +27°C° 0 mm 3 m/s 753 mmHg 46%
    18:00 +24°C° 0 mm 2 m/s 753 mmHg 61%
    19:00 +19°C° 0 mm 2 m/s 753 mmHg 77%
    20:00 +18°C° 0 mm 2 m/s 753 mmHg 82%
    21:00 +16°C° 0 mm 1 m/s 753 mmHg 88%
    22:00 +15°C° 0 mm 1 m/s 754 mmHg 93%
    23:00 +15°C° 0 mm 1 m/s 753 mmHg 92%

    1 Martie, Miercuri

    Timp Temperatura Precipitaţii Vânt Presiune Umiditate
    00:00 +14°C° 0 mm 1 m/s 753 mmHg 92%
    01:00 +14°C° 0 mm 1 m/s 753 mmHg 92%
    02:00 +14°C° 0 mm 1 m/s 753 mmHg 92%
    03:00 +14°C° 0 mm 1 m/s 753 mmHg 93%
    04:00 +14°C° 0 mm 1 m/s 753 mmHg 94%
    05:00 +15°C° 0 mm 1 m/s 753 mmHg 91%
    06:00 +16°C° 0 mm 1 m/s 754 mmHg 88%
    07:00 +19°C° 0 mm 1 m/s 754 mmHg 85%
    08:00 +21°C° 0 mm 1 m/s 754 mmHg 73%
    09:00 +24°C° 0 mm 1 m/s 754 mmHg 62%
    10:00 +27°C° 0 mm 1 m/s 754 mmHg 51%
    11:00 +28°C° 0 mm 1 m/s 754 mmHg 48%
    12:00 +29°C° 0 mm 1 m/s 753 mmHg 44%
    13:00 +30°C° 0 mm 2 m/s 753 mmHg 41%
    14:00 +29°C° 0,1 mm 2 m/s 753 mmHg 46%
    15:00 +28°C° 0,1 mm 2 m/s 753 mmHg 50%
    16:00 +28°C° 0,1 mm 2 m/s 752 mmHg 54%
    17:00 +25°C° 0,2 mm 2 m/s 753 mmHg 66%
    18:00 +23°C° 0,2 mm 2 m/s 753 mmHg 77%
    19:00 +19°C° 0,2 mm 2 m/s 753 mmHg 89%
    20:00 +19°C° 0 mm 1 m/s 753 mmHg 92%
    21:00 +18°C° 0 mm 1 m/s 753 mmHg 94%
    22:00 +15°C° 0 mm 1 m/s 754 mmHg 97%
    23:00 +15°C° 0 mm 1 m/s 753 mmHg 97%

    2 Martie, Joi

    Timp Temperatura Precipitaţii Vânt Presiune Umiditate
    00:00 +15°C° 0 mm 1 m/s 753 mmHg 96%
    01:00 +15°C° 0 mm 1 m/s 753 mmHg 96%
    02:00 +15°C° 0 mm 1 m/s 753 mmHg 96%
    03:00 +15°C° 0 mm 1 m/s 753 mmHg 96%
    04:00 +15°C° 0 mm 1 m/s 753 mmHg 95%
    05:00 +15°C° 0 mm 1 m/s 753 mmHg 93%
    06:00 +16°C° 0 mm 1 m/s 754 mmHg 91%
    07:00 +18°C° 0 mm 1 m/s 754 mmHg 89%
    08:00 +21°C° 0 mm 1 m/s 754 mmHg 78%
    09:00 +24°C° 0 mm 2 m/s 755 mmHg 67%
    10:00 +26°C° 0 mm 2 m/s 755 mmHg 55%
    11:00 +27°C° 0 mm 2 m/s 755 mmHg 51%
    12:00 +28°C° 0 mm 2 m/s 754 mmHg 47%
    13:00 +29°C° 0 mm 3 m/s 754 mmHg 43%
    14:00 +28°C° 0 mm 3 m/s 754 mmHg 47%
    15:00 +27°C° 0 mm 3 m/s 754 mmHg 52%
    16:00 +26°C° 0 mm 3 m/s 754 mmHg 56%
    17:00 +24°C° 0 mm 3 m/s 754 mmHg 67%
    18:00 +20°C° 0 mm 2 m/s 754 mmHg 79%
    19:00 +18°C° 0 mm 2 m/s 755 mmHg 90%
    20:00 +18°C° 0 mm 1 m/s 755 mmHg 93%
    21:00 +16°C° 0 mm 1 m/s 755 mmHg 95%
    22:00 +15°C° 0 mm 1 m/s 755 mmHg 98%
    23:00 +14°C° 0 mm 1 m/s 755 mmHg 98%
    Arată mai mult